Stations météo

Publicité
Nice, France (7690): Température de l'air & dewpoint: 10.01.2018 09:00:00 - 16.01.2018 09:00:00 (CET)Nice, France (7690): Température de l'air 5cm: 10.01.2018 09:00:00 - 16.01.2018 09:00:00 (CET)Nice, France (7690): Température de l'air -20cm & Température de l'air -100cm: 10.01.2018 09:00:00 - 16.01.2018 09:00:00 (CET)Nice, France (7690): Vitesse du vent & gusts: 10.01.2018 09:00:00 - 16.01.2018 09:00:00 (CET)Nice, France (7690): Direction du vent: 10.01.2018 09:00:00 - 16.01.2018 09:00:00 (CET)Nice, France (7690): reduced air pressure: 10.01.2018 09:00:00 - 16.01.2018 09:00:00 (CET)Nice, France (7690): visibility: 10.01.2018 09:00:00 - 16.01.2018 09:00:00 (CET)Nice, France (7690): Quantités de précipitations: 10.01.2018 09:00:00 - 16.01.2018 09:00:00 (CET)
Date & Time tt [°C] td [°C] tt 5cm [°C] tt -20cm [°C] tt -100cm [°C] ff [km/h] ff [knt] fx [km/h] fx [knt] dd ppp [hPa] vv [km] rr [mm]
16.01.2018 09:00:00 - - - - - - - - - - - - -
16.01.2018 08:00:00 11,3 6,2 10,2 11,1 12,5 35 19 66 35 WSW 1011,0 40 0,0
16.01.2018 07:00:00 11,2 5,9 10,3 11,1 12,5 44 24 64 35 WSW 1011,2 30 0,0
16.01.2018 06:00:00 11,0 5,3 10,1 11,1 12,5 43 23 66 36 SW 1011,9 20 0,0
16.01.2018 05:00:00 11,1 3,6 10,1 11,1 12,5 47 26 67 36 WSW 1012,8 20 0,0
16.01.2018 04:00:00 11,0 5,1 10,0 11,1 12,4 45 24 66 36 WSW 1013,9 20 0,0
16.01.2018 03:00:00 11,1 5,0 9,7 11,1 12,4 45 25 63 34 WSW 1015,3 20 0,0
16.01.2018 02:00:00 10,5 4,8 9,6 11,1 12,5 37 20 51 28 WSW 1015,9 20 0,0
16.01.2018 01:00:00 10,8 4,7 9,8 11,1 12,6 36 20 51 28 WSW 1016,6 20 0,0
16.01.2018 00:00:00 11,0 4,7 9,3 11,1 12,5 35 19 49 26 WSW 1017,5 20 0,0
15.01.2018 23:00:00 10,3 4,9 8,9 11,1 12,5 26 14 34 18 W 1018,0 20 0,0
15.01.2018 22:00:00 9,8 5,6 7,8 11,1 12,5 14 8 20 11 W 1018,5 20 0,0
15.01.2018 21:00:00 9,9 6,1 8,0 11,1 12,5 16 9 29 16 WSW 1019,1 21 0,0
15.01.2018 20:00:00 9,3 6,0 7,3 11,1 12,5 10 5 27 14 W 1019,3 30 0,0
15.01.2018 19:00:00 10,0 6,2 9,0 11,1 12,5 14 8 28 15 W 1019,5 30 0,0
15.01.2018 18:00:00 10,9 6,4 9,3 11,1 12,5 10 6 18 10 WSW 1019,6 30 0,0
15.01.2018 17:00:00 11,6 6,3 11,1 11,1 12,4 14 7 19 10 SW 1020,3 30 0,0
15.01.2018 16:00:00 11,8 5,0 12,1 11,1 12,5 9 5 14 7 SSW 1020,7 30 0,0
15.01.2018 15:00:00 12,1 5,5 15,5 11,2 12,5 8 4 11 6 S 1020,7 30 0,0
15.01.2018 14:00:00 12,3 4,5 13,7 11,2 12,4 5 3 10 6 SSE 1021,2 30 0,0
15.01.2018 13:00:00 12,2 4,2 13,6 11,1 12,4 5 3 11 6 SE 1022,3 40 0,0
15.01.2018 12:00:00 11,4 2,7 9,7 11,1 12,7 10 6 23 13 NW 1023,3 40 0,0
15.01.2018 11:00:00 8,5 2,1 8,2 11,2 12,5 14 8 28 15 NW 1023,7 40 0,0
15.01.2018 10:00:00 8,0 2,0 7,2 11,2 12,7 19 10 25 14 NNW 1023,5 40 0,0
15.01.2018 09:00:00 6,4 1,7 5,1 11,2 12,6 13 7 26 14 NNW 1023,1 40 0,0
15.01.2018 08:00:00 5,9 1,6 5,1 11,2 12,5 15 8 23 13 NNW 1022,7 10 0,0
15.01.2018 07:00:00 6,6 1,9 6,0 11,2 12,5 15 8 27 15 NNW 1022,2 20 0,0
15.01.2018 06:00:00 6,7 2,2 5,8 11,2 12,7 15 8 20 11 NNW 1021,9 20 0,0
15.01.2018 05:00:00 6,7 2,2 5,8 11,3 12,6 13 7 18 10 NNW 1021,9 20 0,0
15.01.2018 04:00:00 7,1 2,6 6,3 11,3 12,6 16 8 20 11 NNW 1022,2 20 0,0
15.01.2018 03:00:00 7,7 3,0 7,2 11,3 12,5 15 8 20 11 NNW 1022,3 10 0,0
15.01.2018 02:00:00 7,8 3,1 7,3 11,2 12,6 13 7 19 10 NNW 1022,2 10 0,0
15.01.2018 01:00:00 7,8 3,3 7,3 11,3 12,5 14 8 22 12 NNW 1022,4 15 0,0
15.01.2018 00:00:00 7,9 3,5 7,4 11,3 12,6 15 8 19 10 NNW 1022,6 15 0,0
14.01.2018 23:00:00 8,0 3,6 7,5 11,3 12,6 16 8 21 12 NNW 1022,3 15 0,0
14.01.2018 22:00:00 8,0 4,0 7,5 11,3 12,6 16 9 27 15 NNW 1022,0 15 0,0
14.01.2018 21:00:00 8,1 4,3 7,3 11,3 12,6 14 7 20 11 NNW 1021,7 15 0,0
14.01.2018 20:00:00 7,8 4,2 7,0 11,3 12,6 14 7 22 12 NNW 1021,1 15 0,0
14.01.2018 19:00:00 7,7 4,6 6,9 11,3 12,7 11 6 22 12 NNW 1020,7 15 0,0
14.01.2018 18:00:00 7,9 5,5 7,1 11,3 12,7 11 6 29 16 NW 1020,4 15 0,0
14.01.2018 17:00:00 8,0 6,1 7,3 11,3 12,7 14 8 23 13 NNW 1020,1 30 0,2
14.01.2018 16:00:00 8,4 6,2 7,6 11,4 12,5 5 3 23 12 NW 1020,4 6 0,4
14.01.2018 15:00:00 8,2 5,5 7,9 11,4 12,5 17 9 29 16 NNW 1020,0 8 0,0
14.01.2018 14:00:00 10,1 4,7 7,9 11,4 12,8 23 13 28 15 ESE 1020,0 9 0,4
14.01.2018 13:00:00 9,7 6,2 6,2 11,4 12,7 21 11 35 19 E 1020,2 5 1,8
14.01.2018 12:00:00 7,8 2,3 6,2 11,4 12,8 16 9 25 13 NNW 1020,3 10 0,6
14.01.2018 11:00:00 8,5 1,2 7,9 11,4 12,8 11 6 20 11 NNW 1020,4 30 0,0
14.01.2018 10:00:00 7,6 0,8 6,7 11,4 12,7 18 10 24 13 NNW 1020,2 10 0,0
14.01.2018 09:00:00 6,9 0,6 6,2 11,4 12,8 20 11 27 15 NNW 1019,9 30 0,0
14.01.2018 08:00:00 6,5 0,4 5,9 11,4 12,7 19 10 30 16 NNW 1019,4 30 0,0
14.01.2018 07:00:00 6,4 0,5 5,8 11,4 12,7 17 9 27 14 NNW 1019,1 30 0,0
14.01.2018 06:00:00 6,5 0,4 6,0 11,4 12,8 19 10 25 14 NNW 1019,0 30 0,0
14.01.2018 05:00:00 6,7 0,4 5,9 11,5 12,8 15 8 22 12 NNW 1019,1 30 0,0
14.01.2018 04:00:00 6,5 1,0 5,8 11,5 12,8 15 8 22 12 NNW 1019,1 30 0,0
14.01.2018 03:00:00 6,6 1,3 5,7 11,5 12,6 14 8 22 12 NNW 1019,7 20 0,0
14.01.2018 02:00:00 6,5 1,4 5,5 11,5 12,7 15 8 23 12 NNW 1019,9 10 0,0
14.01.2018 01:00:00 6,4 1,5 5,5 11,5 12,6 16 9 27 15 NNW 1020,3 20 0,0
14.01.2018 00:00:00 6,7 1,8 5,9 11,5 12,8 16 8 28 15 NNW 1020,7 20 0,0
13.01.2018 23:00:00 6,9 2,4 6,2 11,5 12,6 20 11 27 14 NNW 1020,6 20 0,0
13.01.2018 22:00:00 7,1 2,8 6,1 11,5 12,8 15 8 26 14 NNW 1020,8 20 0,0
13.01.2018 21:00:00 7,5 3,4 6,4 11,5 12,7 16 9 20 11 NNW 1020,7 20 0,0
13.01.2018 20:00:00 8,2 3,6 7,5 11,6 12,8 15 8 20 11 NW 1020,9 20 0,0
13.01.2018 19:00:00 9,2 3,8 8,4 11,5 12,8 9 5 13 7 NW 1020,7 40 0,0
13.01.2018 18:00:00 11,3 3,1 8,7 11,5 12,7 9 5 15 8 ESE 1020,6 40 0,0
13.01.2018 17:00:00 11,5 3,0 8,4 11,6 12,7 3 2 9 5 NE 1020,7 40 0,0
13.01.2018 16:00:00 12,8 2,9 14,6 11,6 12,9 5 3 11 6 E 1020,7 40 0,0
13.01.2018 15:00:00 13,1 3,2 16,4 11,6 12,8 7 4 16 9 SSE 1020,5 50 0,0
13.01.2018 14:00:00 13,3 4,2 14,4 11,6 12,9 10 5 14 7 SSW 1020,8 50 0,0
13.01.2018 13:00:00 13,2 3,0 11,9 11,6 12,8 2 1 16 9 SE 1021,5 50 0,0
13.01.2018 12:00:00 11,4 0,2 12,8 11,6 12,7 13 7 20 11 NNW 1022,2 10 0,0
13.01.2018 11:00:00 9,4 -0,2 9,5 11,7 12,9 13 7 27 15 NNW 1022,6 10 0,0
13.01.2018 10:00:00 7,4 -0,6 6,8 11,7 12,9 24 13 34 19 NNW 1022,1 50 0,0
13.01.2018 09:00:00 5,7 -0,8 4,6 11,7 13,0 27 15 38 21 NNW 1021,8 50 0,0
13.01.2018 08:00:00 5,2 -0,8 4,5 11,7 12,8 27 14 38 21 NNW 1021,3 50 0,0
13.01.2018 07:00:00 5,6 -0,7 4,8 11,7 12,9 27 15 36 19 NNW 1021,1 40 0,0
13.01.2018 06:00:00 5,6 -0,5 5,0 11,7 12,9 25 13 35 19 NNW 1021,3 40 0,0
13.01.2018 05:00:00 5,9 -0,4 5,2 11,7 12,8 26 14 35 19 NNW 1021,3 10 0,0
13.01.2018 04:00:00 6,1 0,0 5,4 11,7 13,0 27 14 35 19 NNW 1021,5 40 0,0
13.01.2018 03:00:00 6,4 0,3 5,8 11,7 12,8 24 13 31 17 NNW 1021,6 40 0,0
13.01.2018 02:00:00 6,9 0,6 6,2 11,7 12,8 23 13 31 17 NNW 1021,5 40 0,0
13.01.2018 01:00:00 7,4 1,0 6,5 11,7 12,8 22 12 29 16 NNW 1021,6 40 0,0
13.01.2018 00:00:00 7,4 1,2 6,5 11,8 12,9 18 10 24 13 NNW 1021,5 40 0,0
12.01.2018 23:00:00 7,7 1,3 6,5 11,8 12,9 18 10 29 15 NNW 1021,2 40 0,0
12.01.2018 22:00:00 8,2 1,8 6,5 11,8 12,9 14 8 24 13 NNW 1020,6 40 0,0
12.01.2018 21:00:00 8,5 2,1 7,4 11,8 12,9 16 9 26 14 NNW 1020,2 10 0,0
12.01.2018 20:00:00 8,8 2,4 7,9 11,8 13,0 20 11 26 14 NNW 1019,7 40 0,0
12.01.2018 19:00:00 9,3 2,6 8,2 11,8 13,0 15 8 21 12 NNW 1019,4 40 0,0
12.01.2018 18:00:00 10,2 2,5 9,1 11,8 12,9 12 6 19 10 NNW 1018,7 40 0,0
12.01.2018 17:00:00 12,7 6,9 11,5 11,8 12,8 9 5 16 8 WSW 1018,2 40 0,0
12.01.2018 16:00:00 13,7 6,3 14,3 11,9 12,8 6 3 10 6 SW 1017,7 40 0,0
12.01.2018 15:00:00 14,3 1,2 13,7 11,9 13,0 6 4 24 13 NW 1017,3 40 0,0
12.01.2018 14:00:00 12,3 1,3 12,3 11,9 12,9 16 9 32 17 NNW 1017,0 40 0,0
12.01.2018 13:00:00 10,9 1,1 11,1 11,9 12,7 18 10 33 18 NW 1017,2 10 0,0
12.01.2018 12:00:00 9,8 0,9 9,2 11,9 12,9 22 12 32 17 NNW 1017,7 10 0,0
12.01.2018 11:00:00 8,9 0,3 7,9 11,9 12,9 24 13 37 20 NNW 1018,0 40 0,0
12.01.2018 10:00:00 7,7 -0,1 6,5 11,9 12,8 26 14 37 20 NNW 1017,4 40 0,0
12.01.2018 09:00:00 6,6 -0,2 5,4 11,9 12,9 26 14 39 21 NNW 1016,7 40 0,0
12.01.2018 08:00:00 6,0 -0,3 5,4 12,0 12,9 26 14 45 24 NNW 1016,2 10 0,0
12.01.2018 07:00:00 6,1 0,0 5,2 12,0 12,9 22 12 35 19 NNW 1015,6 40 0,0
12.01.2018 06:00:00 6,1 0,2 5,6 11,9 12,9 28 15 37 20 NNW 1015,0 40 0,0
12.01.2018 05:00:00 6,2 0,5 5,5 12,0 12,9 26 14 32 17 NNW 1014,9 40 0,0
12.01.2018 04:00:00 6,4 0,9 5,7 12,0 12,9 21 11 33 18 NNW 1014,5 40 0,0
12.01.2018 03:00:00 6,6 1,1 5,8 12,0 12,9 23 12 32 18 NNW 1014,3 40 0,0
12.01.2018 02:00:00 6,9 1,6 6,2 12,0 12,9 24 13 32 17 NNW 1014,0 40 0,0
12.01.2018 01:00:00 7,0 1,9 6,2 12,0 12,8 18 10 26 14 NNW 1013,9 40 0,0
12.01.2018 00:00:00 7,1 2,4 6,1 12,0 12,9 16 9 21 11 NNW 1013,9 40 0,0
11.01.2018 23:00:00 7,8 2,7 6,9 12,0 12,8 14 8 22 12 NNW 1013,3 59 0,0
11.01.2018 22:00:00 7,8 3,1 6,6 12,0 12,9 18 10 29 16 NNW 1013,0 40 0,0
11.01.2018 21:00:00 8,2 3,4 7,0 12,0 13,0 15 8 22 12 NNW 1012,6 40 0,0
11.01.2018 20:00:00 8,1 3,7 7,1 12,1 12,9 14 7 26 14 NNW 1012,3 40 0,0
11.01.2018 19:00:00 8,6 4,0 7,7 12,1 12,9 17 9 22 12 NNW 1011,8 40 0,0
11.01.2018 18:00:00 9,6 4,4 8,2 12,1 12,9 14 7 17 9 NW 1011,5 40 0,0
11.01.2018 17:00:00 11,8 6,7 10,2 12,1 12,9 9 5 13 7 SW 1010,9 40 0,0
11.01.2018 16:00:00 12,6 6,8 13,1 12,1 13,0 8 4 11 6 SW 1010,5 40 0,0
11.01.2018 15:00:00 12,6 5,3 13,4 12,1 12,9 8 4 10 6 SSW 1010,2 40 0,0
11.01.2018 14:00:00 12,4 3,6 13,4 12,1 13,0 6 4 20 11 NW 1009,9 40 0,0
11.01.2018 13:00:00 12,0 3,7 12,0 12,1 12,9 15 8 28 15 NNW 1010,2 40 0,0
11.01.2018 12:00:00 10,2 3,2 9,9 12,1 12,9 21 11 34 19 NNW 1010,8 10 0,0
11.01.2018 11:00:00 9,2 2,7 8,5 12,2 12,9 19 10 30 16 NNW 1011,2 50 0,0
11.01.2018 10:00:00 7,8 2,7 7,1 12,2 13,0 22 12 27 15 NNW 1011,2 50 0,0
11.01.2018 09:00:00 7,0 2,5 6,6 12,2 12,9 19 10 29 16 NNW 1011,1 50 0,0
11.01.2018 08:00:00 7,0 2,7 6,3 12,2 12,8 22 12 31 17 NNW 1010,8 50 0,0
11.01.2018 07:00:00 6,7 2,6 5,9 12,2 12,9 21 11 27 15 NNW 1010,8 30 0,0
11.01.2018 06:00:00 6,9 2,6 5,8 12,2 13,0 13 7 21 11 NNW 1010,3 30 0,0
11.01.2018 05:00:00 7,1 3,2 6,6 12,2 12,9 14 8 24 13 NNW 1010,4 30 0,0
11.01.2018 04:00:00 7,0 3,4 6,6 12,2 12,9 16 9 29 16 NNW 1011,2 30 0,0
11.01.2018 03:00:00 6,9 3,5 6,3 12,2 12,9 22 12 28 15 NNW 1011,8 10 0,0
11.01.2018 02:00:00 6,8 3,6 6,3 12,2 12,9 23 12 29 16 NNW 1011,9 30 0,0
11.01.2018 01:00:00 6,9 3,9 6,3 12,2 12,9 21 11 27 14 NNW 1012,0 10 0,0
11.01.2018 00:00:00 6,9 4,0 6,2 12,2 12,9 17 9 22 12 NNW 1012,2 30 0,0
10.01.2018 23:00:00 7,2 4,3 6,6 12,2 12,9 16 9 24 13 NNW 1012,6 30 0,0
10.01.2018 22:00:00 7,4 4,9 6,8 12,2 12,9 16 9 21 12 NNW 1013,0 10 0,0
10.01.2018 21:00:00 8,1 5,4 7,2 12,2 12,8 15 8 23 12 NNW 1013,0 30 0,0
10.01.2018 20:00:00 8,7 5,8 7,8 12,3 12,8 12 6 18 10 NNW 1013,2 30 0,0
10.01.2018 19:00:00 9,9 6,4 9,1 12,3 12,9 11 6 18 10 NNW 1013,0 30 0,0
10.01.2018 18:00:00 11,0 6,9 10,2 12,3 13,0 8 5 12 6 ENE 1013,0 30 0,0
10.01.2018 17:00:00 11,5 7,0 11,0 12,3 13,0 10 5 13 7 E 1013,2 30 0,0
10.01.2018 16:00:00 11,5 7,8 11,6 12,3 12,8 9 5 11 6 E 1013,2 30 0,0
10.01.2018 15:00:00 11,5 8,0 11,3 12,3 12,8 5 3 10 5 E 1013,2 30 0,0
10.01.2018 14:00:00 11,5 7,0 11,5 12,3 12,8 8 4 9 5 E 1013,8 25 0,0
10.01.2018 13:00:00 11,1 6,0 11,4 12,3 12,9 5 3 18 10 NNW 1014,7 30 0,0
10.01.2018 12:00:00 10,9 6,2 9,9 12,3 12,8 9 5 13 7 NNE 1015,6 38 0,0
10.01.2018 11:00:00 9,8 5,2 9,1 12,3 12,7 13 7 21 11 N 1016,4 30 0,0
10.01.2018 10:00:00 8,6 5,2 7,7 12,3 12,9 12 6 24 13 N 1016,4 30 0,0
10.01.2018 09:00:00 8,0 4,8 6,6 12,3 12,9 13 7 21 12 NNW 1016,6 30 0,0

tt = Température de l'air
td = dewpoint
tt 5cm = Température de l'air 5cm
tt -20cm = Température de l'air -20cm
tt -100cm = Température de l'air -100cm
ff = Vitesse du vent
fx = gusts
dd = Direction du vent
ppp = reduced air pressure
vv = visibility
rr = Quantités de précipitations

stations d'obs. à proximité